User: anonymous   Login
Location: Bieg
(49.3499°N, 10.3835°E)
Time: 13:25:37
(UTC+00:00)
Language:

RESURS DK-1 - Orbit

View from above orbital plane
View from above orbital plane
View from above satellite
View from above satellite

Ground track
Ground track

The orbit data is extracted from the following two-line orbital elements,

1 29228U 06021A   24195.89567523  .00004101  00000-0  27622-3 0  9996
2 29228  69.9365 353.2391 0006123 305.6142  54.4450 15.07490975996342
Epoch (UTC): 13 July 2024 21:29:46
Eccentricity: 0.0006123
inclination: 69.9365°
perigee height: 539 km
apogee height: 548 km
right ascension of ascending node: 353.2391°
argument of perigee: 305.6142°
revolutions per day: 15.07490975
mean anomaly at epoch: 54.4450°
orbit number at epoch: 99634

The dashed part of the orbit path shows where the satellite is in the earth's shadow,  

DLR